Previsão horária em Abaeté

Hoje, 29 Setembro, Terça-feira

Tempo Temperatura Precipitação Vento Pressão Humidade
00:00 +28°C° 0 mm 1 m/s 706 mmHg 22%
01:00 +27°C° 0 mm 1 m/s 705 mmHg 24%
02:00 +26°C° 0 mm 1 m/s 705 mmHg 26%
03:00 +23°C° 0 mm 0 m/s 705 mmHg 29%
04:00 +23°C° 0 mm 0 m/s 705 mmHg 30%
05:00 +22°C° 0 mm 0 m/s 706 mmHg 31%
06:00 +22°C° 0 mm 0 m/s 706 mmHg 33%
07:00 +27°C° 0 mm 1 m/s 707 mmHg 29%
08:00 +30°C° 0 mm 1 m/s 708 mmHg 25%
09:00 +35°C° 0 mm 2 m/s 709 mmHg 19%
10:00 +36°C° 0 mm 2 m/s 709 mmHg 17%
11:00 +38°C° 0 mm 2 m/s 708 mmHg 15%
12:00 +40°C° 0 mm 3 m/s 708 mmHg 13%
13:00 +40°C° 0 mm 2 m/s 708 mmHg 13%
14:00 +41°C° 0 mm 2 m/s 707 mmHg 12%
15:00 +42°C° 0 mm 1 m/s 706 mmHg 12%
16:00 +39°C° 0 mm 1 m/s 706 mmHg 14%
17:00 +36°C° 0 mm 1 m/s 706 mmHg 16%
18:00 +34°C° 0 mm 1 m/s 705 mmHg 18%
19:00 +33°C° 0 mm 1 m/s 706 mmHg 19%
20:00 +32°C° 0 mm 2 m/s 707 mmHg 21%
21:00 +31°C° 0 mm 2 m/s 707 mmHg 22%
22:00 +30°C° 0 mm 2 m/s 707 mmHg 27%
23:00 +29°C° 0 mm 2 m/s 707 mmHg 32%

Amanhã, 30 Setembro, Quarta-feira

Tempo Temperatura Precipitação Vento Pressão Humidade
00:00 +28°C° 0 mm 1 m/s 707 mmHg 37%
01:00 +27°C° 0 mm 1 m/s 707 mmHg 40%
02:00 +27°C° 0 mm 1 m/s 707 mmHg 42%
03:00 +26°C° 0 mm 1 m/s 707 mmHg 45%
04:00 +25°C° 0 mm 1 m/s 707 mmHg 47%
05:00 +25°C° 0 mm 1 m/s 707 mmHg 50%
06:00 +24°C° 0 mm 1 m/s 708 mmHg 53%
07:00 +27°C° 0 mm 2 m/s 708 mmHg 46%
08:00 +30°C° 0 mm 2 m/s 709 mmHg 40%
09:00 +32°C° 0 mm 2 m/s 710 mmHg 33%
10:00 +35°C° 0 mm 3 m/s 709 mmHg 29%
11:00 +37°C° 0 mm 3 m/s 709 mmHg 25%
12:00 +39°C° 0 mm 3 m/s 709 mmHg 21%
13:00 +39°C° 0 mm 3 m/s 708 mmHg 20%
14:00 +40°C° 0 mm 3 m/s 707 mmHg 19%
15:00 +40°C° 0 mm 2 m/s 706 mmHg 17%
16:00 +38°C° 0 mm 2 m/s 706 mmHg 20%
17:00 +36°C° 0 mm 1 m/s 706 mmHg 22%
18:00 +34°C° 0 mm 1 m/s 706 mmHg 24%
19:00 +34°C° 0 mm 2 m/s 706 mmHg 25%
20:00 +32°C° 0 mm 2 m/s 707 mmHg 27%
21:00 +33°C° 0 mm 3 m/s 707 mmHg 29%
22:00 +30°C° 0 mm 3 m/s 707 mmHg 33%
23:00 +29°C° 0 mm 3 m/s 707 mmHg 38%

Depois de amanhã, 1 Outubro, Quinta-feira

Tempo Temperatura Precipitação Vento Pressão Humidade
00:00 +28°C° 0 mm 2 m/s 707 mmHg 42%
01:00 +27°C° 0 mm 2 m/s 707 mmHg 45%
02:00 +26°C° 0 mm 1 m/s 707 mmHg 49%
03:00 +23°C° 0 mm 0 m/s 706 mmHg 52%
04:00 +25°C° 0 mm 1 m/s 706 mmHg 53%
05:00 +25°C° 0 mm 1 m/s 707 mmHg 54%
06:00 +25°C° 0 mm 1 m/s 707 mmHg 55%
07:00 +27°C° 0 mm 2 m/s 707 mmHg 48%
08:00 +29°C° 0 mm 2 m/s 708 mmHg 41%
09:00 +33°C° 0 mm 3 m/s 709 mmHg 34%
10:00 +35°C° 0 mm 3 m/s 708 mmHg 29%
11:00 +37°C° 0 mm 3 m/s 708 mmHg 25%
12:00 +39°C° 0 mm 3 m/s 707 mmHg 20%
13:00 +39°C° 0 mm 3 m/s 707 mmHg 18%
14:00 +40°C° 0 mm 3 m/s 706 mmHg 17%
15:00 +40°C° 0 mm 3 m/s 705 mmHg 15%
16:00 +38°C° 0 mm 2 m/s 705 mmHg 17%
17:00 +37°C° 0 mm 2 m/s 705 mmHg 19%
18:00 +35°C° 0 mm 2 m/s 704 mmHg 21%
19:00 +32°C° 0 mm 2 m/s 705 mmHg 23%
20:00 +31°C° 0 mm 3 m/s 705 mmHg 26%
21:00 +30°C° 0 mm 3 m/s 706 mmHg 29%
22:00 +29°C° 0 mm 2 m/s 706 mmHg 32%
23:00 +28°C° 0 mm 2 m/s 706 mmHg 35%

2 Outubro, Sexta-feira

Tempo Temperatura Precipitação Vento Pressão Humidade
00:00 +27°C° 0 mm 1 m/s 706 mmHg 39%
01:00 +26°C° 0 mm 1 m/s 706 mmHg 42%
02:00 +25°C° 0 mm 1 m/s 705 mmHg 44%
03:00 +22°C° 0 mm 0 m/s 705 mmHg 47%
04:00 +22°C° 0 mm 0 m/s 705 mmHg 50%
05:00 +23°C° 0 mm 1 m/s 705 mmHg 52%
06:00 +23°C° 0 mm 1 m/s 706 mmHg 54%
07:00 +26°C° 0 mm 1 m/s 706 mmHg 47%
08:00 +29°C° 0 mm 1 m/s 707 mmHg 40%
09:00 +32°C° 0 mm 2 m/s 708 mmHg 33%
10:00 +35°C° 0 mm 2 m/s 707 mmHg 28%
11:00 +37°C° 0 mm 2 m/s 707 mmHg 23%
12:00 +39°C° 0 mm 2 m/s 707 mmHg 18%
13:00 +40°C° 0 mm 2 m/s 706 mmHg 17%
14:00 +40°C° 0 mm 2 m/s 706 mmHg 15%
15:00 +41°C° 0 mm 2 m/s 705 mmHg 14%
16:00 +39°C° 0 mm 1 m/s 705 mmHg 15%
17:00 +36°C° 0 mm 1 m/s 705 mmHg 17%
18:00 +34°C° 0 mm 1 m/s 704 mmHg 19%
19:00 +32°C° 0 mm 1 m/s 705 mmHg 20%
20:00 +31°C° 0 mm 1 m/s 705 mmHg 22%
21:00 +30°C° 0 mm 1 m/s 706 mmHg 24%
22:00 +29°C° 0 mm 1 m/s 706 mmHg 27%
23:00 +28°C° 0 mm 1 m/s 706 mmHg 31%

3 Outubro, Sábado

Tempo Temperatura Precipitação Vento Pressão Humidade
00:00 +25°C° 0 mm 0 m/s 706 mmHg 34%
01:00 +24°C° 0 mm 0 m/s 705 mmHg 37%
02:00 +24°C° 0 mm 0 m/s 705 mmHg 39%
03:00 +23°C° 0 mm 0 m/s 705 mmHg 42%
04:00 +23°C° 0 mm 0 m/s 705 mmHg 44%
05:00 +22°C° 0 mm 0 m/s 705 mmHg 45%
06:00 +22°C° 0 mm 0 m/s 705 mmHg 46%
07:00 +27°C° 0 mm 1 m/s 706 mmHg 39%
08:00 +31°C° 0 mm 1 m/s 707 mmHg 32%
09:00 +34°C° 0 mm 1 m/s 707 mmHg 25%
10:00 +37°C° 0 mm 2 m/s 707 mmHg 22%
11:00 +39°C° 0 mm 3 m/s 707 mmHg 18%
12:00 +42°C° 0 mm 3 m/s 707 mmHg 14%
13:00 +43°C° 0 mm 3 m/s 706 mmHg 14%
14:00 +43°C° 0 mm 3 m/s 705 mmHg 13%
15:00 +43°C° 0 mm 3 m/s 705 mmHg 12%
16:00 +40°C° 0 mm 3 m/s 705 mmHg 13%
17:00 +38°C° 0 mm 3 m/s 704 mmHg 15%
18:00 +36°C° 0 mm 3 m/s 704 mmHg 17%
19:00 +35°C° 0 mm 3 m/s 705 mmHg 19%
20:00 +34°C° 0 mm 3 m/s 705 mmHg 21%
21:00 +31°C° 0 mm 3 m/s 706 mmHg 23%
22:00 +30°C° 0 mm 3 m/s 706 mmHg 27%
23:00 +29°C° 0 mm 2 m/s 706 mmHg 31%

4 Outubro, Domingo

Tempo Temperatura Precipitação Vento Pressão Humidade
00:00 +28°C° 0 mm 2 m/s 707 mmHg 35%
01:00 +27°C° 0 mm 2 m/s 706 mmHg 41%
02:00 +26°C° 0 mm 2 m/s 706 mmHg 48%
03:00 +25°C° 0 mm 2 m/s 706 mmHg 54%
04:00 +25°C° 0 mm 2 m/s 707 mmHg 59%
05:00 +24°C° 0 mm 2 m/s 707 mmHg 64%
06:00 +24°C° 0 mm 3 m/s 707 mmHg 69%
07:00 +26°C° 0 mm 3 m/s 708 mmHg 62%
08:00 +28°C° 0 mm 3 m/s 709 mmHg 54%
09:00 +30°C° 0 mm 4 m/s 709 mmHg 47%
10:00 +33°C° 0 mm 4 m/s 709 mmHg 40%
11:00 +35°C° 0 mm 4 m/s 709 mmHg 33%
12:00 +37°C° 0 mm 4 m/s 709 mmHg 27%
13:00 +38°C° 0 mm 4 m/s 708 mmHg 25%
14:00 +39°C° 0 mm 3 m/s 707 mmHg 23%
15:00 +39°C° 0 mm 3 m/s 706 mmHg 21%
16:00 +38°C° 0 mm 3 m/s 706 mmHg 24%
17:00 +36°C° 0 mm 3 m/s 706 mmHg 26%
18:00 +34°C° 0 mm 3 m/s 706 mmHg 29%
19:00 +33°C° 0 mm 3 m/s 706 mmHg 33%
20:00 +31°C° 0 mm 3 m/s 707 mmHg 37%
21:00 +30°C° 0 mm 4 m/s 708 mmHg 41%
22:00 +29°C° 0 mm 3 m/s 708 mmHg 46%
23:00 +28°C° 0 mm 3 m/s 708 mmHg 51%
Mostrar mais